This is the latest recevied weather packets stored in our database for station/object K7D3. If no packets are shown the sender has not sent any weather packets the latest 10 day(s).
| Time | Temp. | Humidity | Pressure | Rain* | Wind** | Luminosity | Snow |
|---|---|---|---|---|---|---|---|
| 1777492025 | 7.22° C | 90% | - | 0 mm | 4.02 m/s, 66° | - | - |
| 1777491546 | 7.22° C | 90% | - | 0 mm | 2.68 m/s, 48° | - | - |
| 1777491063 | 7.22° C | 90% | - | 0 mm | 2.24 m/s, 68° | - | - |
| 1777490584 | 7.22° C | 92% | - | 0.25 mm | 0.89 m/s, 89° | - | - |
| 1777490105 | 6.67° C | 92% | - | 0.25 mm | 4.02 m/s, 104° | - | - |
| 1777489623 | 7.22° C | 94% | - | 0.25 mm | 3.13 m/s, 82° | - | - |
| 1777489143 | 6.67° C | 92% | - | 0.25 mm | 4.02 m/s, 34° | - | - |
| 1777488664 | 7.22° C | 93% | - | 0.25 mm | 3.13 m/s, 46° | - | - |
| 1777488182 | 7.22° C | 93% | - | 0.25 mm | 3.13 m/s, 104° | - | - |
| 1777487702 | 6.67° C | 93% | - | 0.25 mm | 2.68 m/s, 76° | - | - |
| 1777487222 | 6.67° C | 93% | - | 0.25 mm | 3.58 m/s, 86° | - | - |
| 1777486740 | 7.22° C | 93% | - | 0 mm | 3.13 m/s, 72° | - | - |
| 1777486261 | 6.67° C | 93% | - | 0 mm | 3.58 m/s, 51° | - | - |
| 1777485778 | 7.22° C | 94% | - | 0 mm | 0.89 m/s, 23° | - | - |
| 1777485296 | 6.67° C | 93% | - | 0 mm | 3.58 m/s, 76° | - | - |
| 1777484817 | 7.22° C | 95% | - | 0 mm | 0.89 m/s, 55° | - | - |
| 1777484338 | 6.67° C | 94% | - | 0 mm | 3.13 m/s, 46° | - | - |
| 1777483854 | 6.67° C | 93% | - | 0 mm | 2.68 m/s, 94° | - | - |
| 1777483375 | 7.22° C | 94% | - | 0.25 mm | 0.89 m/s, 35° | - | - |
| 1777482896 | 6.67° C | 93% | - | 0.25 mm | 3.13 m/s, 76° | - | - |
| 1777482413 | 6.67° C | 94% | - | 0.25 mm | 2.68 m/s, 79° | - | - |
| 1777481934 | 6.67° C | 94% | - | 0.25 mm | 3.13 m/s, 80° | - | - |
| 1777481455 | 6.67° C | 94% | - | 0.25 mm | 3.13 m/s, 59° | - | - |
| 1777480971 | 6.67° C | 94% | - | 0.25 mm | 0 m/s | - | - |
| 1777480491 | 6.67° C | 95% | - | 0.25 mm | 2.24 m/s, 56° | - | - |
* Rain latest hour (hover to see other rain measurements)
** Current wind speed in m/s (hover to see current wind gust speed)